Date String (YYYY-MM-DD hh:mm:ss) UTC,Instrument flags,absolute air pressure of the measurement (hPa),sample flow rate (lpm),inlet stack bypass flow (lpm),air temperature of the measurement (°C),ambient temperature measured by the external sensor (°C),aerosol sample conditioner tube jacket temperature (°C),OPC LED temperature (°C),internal box temperature (°C),relative humidity of the measurement (%),span deviation,mass concentration of particles derived from Lorenz-Mie calculation of OPC scattering (μg/m³),mass concentration of particles derived from Lorenz-Mie calculation of OPC scattering (μg/m³),mass concentration of particles derived from Lorenz-Mie calculation of OPC scattering (μg/m³)
DateTimeUTC,F1_M11,P_M11,Q1_M11,Q2_M11,T1_M11,T2_M11,T3_M11,T4_M11,T5_M11,U1_M11,ZSPAN_M11,X2_M11,X0_M11,X1_M11
2023-09-27 23:00:00,SystemResetWarning,0828.4,5.00,000.00,027.8,025.0,000.0,036.2,029.5,15.5,0000.0,0005.93,0014.92,0005.20
2023-09-27 23:01:00,SystemResetWarning,0828.4,5.00,000.00,027.9,025.5,000.0,036.3,029.6,15.0,0000.0,0005.91,0014.62,0005.19
2023-09-27 23:02:00,SystemResetWarning,0828.4,5.00,000.00,027.9,025.9,000.0,036.3,029.7,15.0,0000.0,0005.85,0013.09,0005.16
2023-09-27 23:03:00,SystemResetWarning,0828.4,5.00,000.00,027.9,026.3,000.0,036.3,029.8,15.1,0000.0,0005.88,0012.47,0005.14
2023-09-27 23:04:00,SystemResetWarning,0828.4,4.99,000.00,028.0,026.6,000.0,036.3,029.9,15.0,0000.0,0005.86,0012.69,0005.11
2023-09-27 23:05:00,SystemResetWarning,0828.4,5.00,000.00,028.1,026.9,000.0,036.3,030.0,14.5,0000.0,0005.85,0012.81,0005.08
2023-09-27 23:06:00,SystemResetWarning,0828.4,4.98,000.00,028.1,025.8,000.0,036.3,029.9,14.3,0000.0,0005.83,0012.88,0005.07
2023-09-27 23:07:00,SystemResetWarning,0828.4,5.00,000.00,028.0,024.4,000.0,036.3,029.6,14.5,0000.0,0005.86,0013.93,0005.08
2023-09-27 23:08:00,SystemResetWarning,0828.4,5.02,000.00,027.9,024.4,000.0,036.2,029.6,14.7,0000.0,0005.87,0014.34,0005.07
2023-09-27 23:09:00,SystemResetWarning,0828.3,4.99,000.00,027.9,024.8,000.0,036.2,029.5,14.9,0000.0,0005.82,0014.31,0005.07
2023-09-27 23:10:00,SystemResetWarning,0828.4,4.99,000.00,027.9,025.2,000.0,036.2,029.5,15.1,0000.0,0005.83,0014.75,0005.06
2023-09-27 23:11:00,SystemResetWarning,0828.3,5.01,000.00,027.9,025.7,000.0,036.3,029.6,15.4,0000.0,0005.81,0015.70,0005.04
2023-09-27 23:12:00,SystemResetWarning,0828.3,5.02,000.00,027.9,026.1,000.0,036.3,029.7,15.2,0000.0,0005.81,0016.25,0005.04
2023-09-27 23:13:00,SystemResetWarning,0828.4,4.99,000.00,028.0,026.4,000.0,036.3,029.8,15.2,0000.0,0005.78,0015.50,0005.04
2023-09-27 23:14:00,SystemResetWarning,0828.4,5.00,000.00,028.0,026.8,000.0,036.3,029.9,14.9,0000.0,0005.72,0014.72,0005.03
2023-09-27 23:15:00,SystemResetWarning,0828.3,5.00,000.00,028.1,026.6,000.0,036.3,030.0,14.9,0000.0,0005.75,0014.76,0005.03
2023-09-27 23:16:00,SystemResetWarning,0828.4,5.00,000.00,028.1,025.2,000.0,036.3,029.8,15.0,0000.0,0005.77,0014.72,0005.04
2023-09-27 23:17:00,SystemResetWarning,0828.3,5.01,000.00,028.0,024.4,000.0,036.3,029.7,15.3,0000.0,0005.77,0015.16,0005.04
2023-09-27 23:18:00,SystemResetWarning,0828.4,5.01,000.00,027.9,024.6,000.0,036.2,029.6,15.4,0000.0,0005.76,0014.84,0005.03
2023-09-27 23:19:00,SystemResetWarning,0828.3,4.98,000.00,027.9,025.0,000.0,036.2,029.5,15.4,0000.0,0005.70,0014.22,0005.00
2023-09-27 23:20:00,SystemResetWarning,0828.3,4.99,000.00,027.9,025.4,000.0,036.3,029.6,15.7,0000.0,0005.71,0014.24,0004.98
2023-09-27 23:21:00,SystemResetWarning,0828.3,5.01,000.00,027.9,025.9,000.0,036.3,029.7,15.5,0000.0,0005.70,0014.10,0004.97
2023-09-27 23:22:00,SystemResetWarning,0828.3,5.01,000.00,028.0,026.3,000.0,036.3,029.8,15.6,0000.0,0005.68,0013.34,0004.97
2023-09-27 23:23:00,SystemResetWarning,0828.3,5.00,000.00,028.0,026.6,000.0,036.3,029.9,15.5,0000.0,0005.66,0013.04,0004.95
2023-09-27 23:24:00,SystemResetWarning,0828.4,5.00,000.00,028.1,026.9,000.0,036.4,030.0,15.2,0000.0,0005.71,0014.24,0004.96
2023-09-27 23:25:00,SystemResetWarning,0828.3,4.98,000.00,028.1,026.1,000.0,036.3,030.0,15.2,0000.0,0005.79,0015.34,0005.00
2023-09-27 23:26:00,SystemResetWarning,0828.3,5.00,000.00,028.0,024.6,000.0,036.3,029.7,15.6,0000.0,0005.79,0015.85,0005.03
2023-09-27 23:27:00,SystemResetWarning,0828.3,5.01,000.00,028.0,024.4,000.0,036.3,029.6,16.1,0000.0,0005.82,0016.58,0005.04
2023-09-27 23:28:00,SystemResetWarning,0828.3,5.00,000.00,027.9,024.7,000.0,036.3,029.5,16.1,0000.0,0005.86,0017.39,0005.07
2023-09-27 23:29:00,SystemResetWarning,0828.3,4.99,000.00,027.9,025.1,000.0,036.3,029.5,16.1,0000.0,0005.91,0017.37,0005.09
2023-09-27 23:30:00,SystemResetWarning,0828.3,4.99,000.00,027.9,025.6,000.0,036.3,029.6,16.1,0000.0,0006.00,0017.87,0005.12
2023-09-27 23:31:00,SystemResetWarning,0828.3,5.00,000.00,027.9,026.0,000.0,036.3,029.7,16.1,0000.0,0006.08,0018.59,0005.15
2023-09-27 23:32:00,SystemResetWarning,0828.3,5.01,000.00,028.0,026.3,000.0,036.3,029.8,16.0,0000.0,0006.11,0018.69,0005.16
2023-09-27 23:33:00,SystemResetWarning,0828.3,5.00,000.00,028.1,026.7,000.0,036.4,029.9,16.1,0000.5,0006.17,0020.12,0005.17
2023-09-27 23:34:00,SystemResetWarning,0828.3,5.00,000.00,028.1,026.8,000.0,036.4,030.0,15.8,0002.7,0006.29,0019.93,0005.19
2023-09-27 23:35:00,SystemResetWarning,0828.3,4.99,000.00,028.1,025.4,000.0,036.3,029.9,16.1,0003.2,0006.35,0019.08,0005.19
2023-09-27 23:36:00,SystemResetWarning,0828.3,5.01,000.00,028.0,024.3,000.0,036.3,029.6,16.2,0000.4,0006.36,0019.28,0005.17
2023-09-27 23:37:00,SystemResetWarning,0828.3,5.01,000.00,028.0,024.5,000.0,036.3,029.6,16.0,0000.0,0006.35,0019.58,0005.14
2023-09-27 23:38:00,SystemResetWarning,0828.3,5.00,000.00,027.9,024.8,000.0,036.3,029.5,16.4,0000.0,0006.29,0020.03,0005.11
2023-09-27 23:39:00,SystemResetWarning,0828.3,4.98,000.00,027.9,025.3,000.0,036.3,029.6,16.2,0000.0,0006.26,0019.44,0005.09
2023-09-27 23:40:00,SystemResetWarning,0828.3,4.99,000.00,027.9,025.7,000.0,036.3,029.6,16.3,0000.0,0006.25,0019.87,0005.07
2023-09-27 23:41:00,SystemResetWarning,0828.3,5.01,000.00,027.9,026.1,000.0,036.3,029.7,16.0,0000.0,0006.31,0020.26,0005.07
2023-09-27 23:42:00,SystemResetWarning,0828.4,5.02,000.00,028.0,026.5,000.0,036.3,029.8,15.9,0000.0,0006.34,0020.54,0005.07
2023-09-27 23:43:00,SystemResetWarning,0828.3,4.99,000.00,028.1,026.8,000.0,036.4,030.0,16.0,0002.8,0006.34,0021.36,0005.06
2023-09-27 23:44:00,SystemResetWarning,0828.3,4.98,000.00,028.1,026.4,000.0,036.4,030.0,16.0,0001.1,0006.35,0020.88,0005.06
2023-09-27 23:45:00,SystemResetWarning,0828.3,5.01,000.00,028.1,024.8,000.0,036.3,029.8,15.9,0000.0,0006.32,0021.44,0005.06
2023-09-27 23:46:00,SystemResetWarning,0828.3,5.01,000.00,028.0,024.3,000.0,036.3,029.6,15.9,0000.0,0006.27,0021.56,0005.06
2023-09-27 23:47:00,SystemResetWarning,0828.3,5.00,000.00,027.9,024.6,000.0,036.2,029.5,15.9,0000.0,0006.25,0020.04,0005.05
2023-09-27 23:48:00,SystemResetWarning,0828.3,5.00,000.00,027.9,025.0,000.0,036.3,029.5,16.0,0000.0,0006.32,0019.48,0005.06
2023-09-27 23:49:00,SystemResetWarning,0828.4,5.00,000.00,027.9,025.4,000.0,036.3,029.6,16.4,0000.0,0006.36,0019.30,0005.07
2023-09-27 23:50:00,SystemResetWarning,0828.3,5.00,000.00,027.9,025.8,000.0,036.3,029.7,16.3,0000.0,0006.41,0019.47,0005.08
2023-09-27 23:51:00,SystemResetWarning,0828.3,5.00,000.00,028.0,026.2,000.0,036.3,029.8,16.6,0000.0,0006.38,0018.57,0005.05
2023-09-27 23:52:00,SystemResetWarning,0828.3,5.01,000.00,028.0,026.6,000.0,036.3,029.9,16.3,0000.0,0006.30,0017.81,0005.03
2023-09-27 23:53:00,SystemResetWarning,0828.3,5.00,000.00,028.1,026.8,000.0,036.4,030.0,16.4,0000.0,0006.22,0017.65,0005.02
2023-09-27 23:54:00,SystemResetWarning,0828.3,4.99,000.00,028.1,025.6,000.0,036.3,029.9,16.5,0000.0,0006.19,0016.60,0005.01
2023-09-27 23:55:00,SystemResetWarning,0828.3,5.00,000.00,028.0,024.2,000.0,036.3,029.7,16.7,0000.0,0006.15,0016.58,0005.00
2023-09-27 23:56:00,SystemResetWarning,0828.2,5.01,000.00,028.0,024.3,000.0,036.2,029.6,16.6,0000.0,0006.11,0017.07,0004.99
2023-09-27 23:57:00,SystemResetWarning,0828.3,5.01,000.00,027.9,024.6,000.0,036.2,029.5,16.8,0000.0,0006.09,0016.51,0004.98
2023-09-27 23:58:00,SystemResetWarning,0828.2,5.00,000.00,027.9,025.1,000.0,036.3,029.5,17.2,0000.0,0006.11,0016.85,0004.97
2023-09-27 23:59:00,SystemResetWarning,0828.2,5.00,000.00,027.9,025.5,000.0,036.3,029.6,17.5,0000.0,0006.04,0017.03,0004.96
